{"data":{"norad_id":55425,"intl_designator":"2023-014AL","name":"STARLINK-5615","alt_names":[],"object_type":"PAYLOAD","status":"ACTIVE","operator":null,"country":"US","launch_date":"2023-01-31","launch_site_code":"AFWTR","launch_vehicle":null,"mission":null,"orbit_class":"UNKNOWN","rcs_meters":null,"size_class":null,"mass_kg":null,"dimensions":null,"purposes":["comms"],"wikipedia_slug":null,"has_3d_model":false,"image_url":null,"decayed_at":null,"tle_current":{"epoch":"2026-05-25T05:05:33.723168Z","epoch_age_seconds":59955,"freshness":"FRESH","line1":"1 55425U 23014AL  26145.21219587  .00000372  00000+0  38987-4 0  9994","line2":"2 55425  69.9992 251.5475 0003291 272.4164  87.6618 14.98329112183027","mean_motion":14.98329112,"eccentricity":0.0003291,"inclination_deg":69.9992,"raan_deg":251.5475,"arg_perigee_deg":272.4164,"mean_anomaly_deg":87.6618,"bstar":3.8987e-5,"rev_number":18302,"period_min":96.107056084485,"perigee_km":569.77132762838,"apogee_km":574.34594639666,"semimajor_km":6950.1956370125,"source":"CELESTRAK","updated_at":"2026-05-25T13:38:17.798944Z"}}}